When you browse on this site, cookies collect data to enhance your experience and personalize the content and advertising you see.
Visit our Privacy Policy to learn more. By continuing to use the site, you agree to this use of cookies and data.
  • In Romania
  • List of Countries
  • For 7 days
  • Water Temperature
  • Satellite Maps
  • Weather Map
  • Weather Widgets
  • user-avatar
    Login

    Hourly Weather Tibissa

    Today, 22 January, Tuesday

    Time Temperature Precipitation Wind Pressure Humidity
    00:00 +3°C° 0 mm 6 mps 681 mmHg 82%
    01:00 +2°C° 0 mm 5 mps 681 mmHg 84%
    02:00 +2°C° 0 mm 5 mps 681 mmHg 84%
    03:00 +3°C° 0 mm 4 mps 681 mmHg 84%
    04:00 +3°C° 0 mm 4 mps 681 mmHg 84%
    05:00 +2°C° 0 mm 3 mps 681 mmHg 87%
    06:00 +2°C° 0 mm 3 mps 681 mmHg 90%
    07:00 +2°C° 0 mm 2 mps 681 mmHg 93%
    08:00 +2°C° 0 mm 3 mps 681 mmHg 84%
    09:00 +3°C° 0 mm 3 mps 682 mmHg 75%
    10:00 +4°C° 0 mm 3 mps 682 mmHg 67%
    11:00 +5°C° 0 mm 3 mps 682 mmHg 61%
    12:00 +5°C° 0 mm 3 mps 681 mmHg 56%
    13:00 +7°C° 0 mm 2 mps 681 mmHg 50%
    14:00 +7°C° 0.2 mm 2 mps 680 mmHg 50%
    15:00 +7°C° 0.2 mm 2 mps 680 mmHg 51%
    16:00 +7°C° 0.2 mm 2 mps 679 mmHg 51%
    17:00 +7°C° 0.3 mm 2 mps 679 mmHg 57%
    18:00 +7°C° 0.3 mm 1 mps 679 mmHg 63%
    19:00 +6°C° 0.3 mm 1 mps 679 mmHg 69%
    20:00 +6°C° 0.3 mm 1 mps 679 mmHg 71%
    21:00 +5°C° 0.3 mm 1 mps 679 mmHg 73%
    22:00 +5°C° 0.3 mm 1 mps 679 mmHg 75%
    23:00 +5°C° 0 mm 1 mps 678 mmHg 77%

    Tomorrow, 23 January, Wednesday

    Time Temperature Precipitation Wind Pressure Humidity
    00:00 +4°C° 0 mm 1 mps 678 mmHg 78%
    01:00 +3°C° 0 mm 1 mps 677 mmHg 79%
    02:00 +3°C° 0 mm 1 mps 677 mmHg 78%
    03:00 +3°C° 0 mm 1 mps 676 mmHg 78%
    04:00 +3°C° 0 mm 1 mps 676 mmHg 77%
    05:00 +2°C° 0 mm 2 mps 675 mmHg 76%
    06:00 +2°C° 0 mm 2 mps 675 mmHg 74%
    07:00 +2°C° 0 mm 2 mps 675 mmHg 72%
    08:00 +2°C° 0 mm 3 mps 675 mmHg 69%
    09:00 +3°C° 0 mm 3 mps 675 mmHg 65%
    10:00 +4°C° 0 mm 4 mps 675 mmHg 61%
    11:00 +3°C° 0.1 mm 5 mps 675 mmHg 62%
    12:00 +4°C° 0.1 mm 7 mps 674 mmHg 62%
    13:00 +4°C° 0.1 mm 8 mps 674 mmHg 63%
    14:00 +5°C° 0 mm 9 mps 674 mmHg 59%
    15:00 +5°C° 0 mm 10 mps 674 mmHg 55%
    16:00 +5°C° 0 mm 10 mps 673 mmHg 51%
    17:00 +3°C° 0 mm 9 mps 673 mmHg 56%
    18:00 +3°C° 0 mm 7 mps 672 mmHg 61%
    19:00 +2°C° 0 mm 6 mps 672 mmHg 66%
    20:00 +3°C° 0.1 mm 7 mps 672 mmHg 67%
    21:00 +2°C° 0.1 mm 8 mps 671 mmHg 68%
    22:00 +2°C° 0.1 mm 9 mps 671 mmHg 69%
    23:00 +2°C° 0.2 mm 9 mps 671 mmHg 73%

    Day after tomorrow, 24 January, Thursday

    Time Temperature Precipitation Wind Pressure Humidity
    00:00 +2°C° 0.2 mm 9 mps 670 mmHg 78%
    01:00 +1°C° 0.2 mm 9 mps 670 mmHg 82%
    02:00 +1°C° 0.2 mm 9 mps 669 mmHg 79%
    03:00 +1°C° 0.2 mm 9 mps 668 mmHg 76%
    04:00 0°C° 0.2 mm 10 mps 668 mmHg 73%
    05:00 -1°C° 0.9 mm 9 mps 668 mmHg 79%
    06:00 -3°C° 0.9 mm 9 mps 667 mmHg 84%
    07:00 -4°C° 0.9 mm 9 mps 667 mmHg 89%
    08:00 -4°C° 0.4 mm 10 mps 667 mmHg 87%
    09:00 -4°C° 0.4 mm 10 mps 668 mmHg 85%
    10:00 -4°C° 0.4 mm 11 mps 668 mmHg 83%
    11:00 -4°C° 0.1 mm 13 mps 667 mmHg 78%
    12:00 -4°C° 0.1 mm 15 mps 667 mmHg 74%
    13:00 -3°C° 0.1 mm 17 mps 667 mmHg 69%
    14:00 -5°C° 0.2 mm 19 mps 666 mmHg 74%
    15:00 -5°C° 0.2 mm 21 mps 665 mmHg 78%
    16:00 -5°C° 0.2 mm 23 mps 665 mmHg 83%
    17:00 -3°C° 1.7 mm 19 mps 666 mmHg 87%
    18:00 -3°C° 1.7 mm 16 mps 667 mmHg 91%
    19:00 -2°C° 1.7 mm 13 mps 667 mmHg 95%
    20:00 -2°C° 0.4 mm 11 mps 669 mmHg 95%
    21:00 -3°C° 0.4 mm 9 mps 670 mmHg 95%
    22:00 -2°C° 0.4 mm 7 mps 671 mmHg 95%
    23:00 -2°C° 0 mm 7 mps 672 mmHg 94%

    25 January, Friday

    Time Temperature Precipitation Wind Pressure Humidity
    00:00 -2°C° 0 mm 7 mps 672 mmHg 94%
    01:00 -3°C° 0 mm 6 mps 673 mmHg 94%
    02:00 -2°C° 0.1 mm 8 mps 673 mmHg 95%
    03:00 -2°C° 0.1 mm 10 mps 674 mmHg 97%
    04:00 -2°C° 0.1 mm 12 mps 674 mmHg 98%
    05:00 -2°C° 0.1 mm 12 mps 675 mmHg 96%
    06:00 -2°C° 0.1 mm 12 mps 675 mmHg 94%
    07:00 -2°C° 0.1 mm 13 mps 676 mmHg 92%
    08:00 -2°C° 0.1 mm 12 mps 676 mmHg 92%
    09:00 -2°C° 0.1 mm 12 mps 677 mmHg 92%
    10:00 -2°C° 0.1 mm 12 mps 678 mmHg 92%
    11:00 -2°C° 0.2 mm 12 mps 678 mmHg 91%
    12:00 -2°C° 0.2 mm 12 mps 679 mmHg 91%
    13:00 -1°C° 0.2 mm 12 mps 679 mmHg 90%
    14:00 -2°C° 0.1 mm 12 mps 679 mmHg 89%
    15:00 -2°C° 0.1 mm 13 mps 679 mmHg 87%
    16:00 -2°C° 0.1 mm 13 mps 679 mmHg 86%
    17:00 -2°C° 0.1 mm 12 mps 679 mmHg 87%
    18:00 -3°C° 0.1 mm 11 mps 680 mmHg 88%
    19:00 -3°C° 0.1 mm 9 mps 680 mmHg 89%
    20:00 -3°C° 0.1 mm 9 mps 680 mmHg 90%
    21:00 -3°C° 0.1 mm 9 mps 681 mmHg 90%
    22:00 -3°C° 0.1 mm 9 mps 681 mmHg 91%
    23:00 -3°C° 0 mm 9 mps 681 mmHg 91%

    26 January, Saturday

    Time Temperature Precipitation Wind Pressure Humidity
    00:00 -3°C° 0 mm 10 mps 681 mmHg 91%
    01:00 -3°C° 0 mm 10 mps 682 mmHg 91%
    02:00 -3°C° 0 mm 10 mps 682 mmHg 92%
    03:00 -3°C° 0 mm 10 mps 682 mmHg 93%
    04:00 -2°C° 0 mm 10 mps 682 mmHg 93%
    05:00 -1°C° 0 mm 9 mps 682 mmHg 94%
    06:00 -1°C° 0 mm 9 mps 682 mmHg 94%
    07:00 -1°C° 0 mm 9 mps 682 mmHg 94%
    08:00 -1°C° 0 mm 9 mps 683 mmHg 93%
    09:00 0°C° 0 mm 9 mps 683 mmHg 92%
    10:00 0°C° 0 mm 9 mps 683 mmHg 91%
    11:00 +1°C° 0 mm 9 mps 683 mmHg 90%
    12:00 +1°C° 0 mm 8 mps 683 mmHg 90%
    13:00 +3°C° 0 mm 7 mps 683 mmHg 90%
    14:00 +2°C° 0.1 mm 7 mps 683 mmHg 92%
    15:00 +2°C° 0.1 mm 7 mps 683 mmHg 93%
    16:00 +2°C° 0.1 mm 6 mps 683 mmHg 95%
    17:00 +2°C° 0 mm 6 mps 683 mmHg 96%
    18:00 +2°C° 0 mm 5 mps 683 mmHg 96%
    19:00 +2°C° 0 mm 5 mps 684 mmHg 96%
    20:00 +1°C° 0 mm 4 mps 684 mmHg 94%
    21:00 0°C° 0 mm 4 mps 684 mmHg 93%
    22:00 0°C° 0 mm 4 mps 684 mmHg 91%
    23:00 +1°C° 0 mm 3 mps 683 mmHg 89%

    27 January, Sunday

    Time Temperature Precipitation Wind Pressure Humidity
    00:00 +1°C° 0 mm 3 mps 683 mmHg 87%
    01:00 +1°C° 0 mm 3 mps 683 mmHg 84%
    02:00 +1°C° 0 mm 3 mps 683 mmHg 82%
    03:00 +1°C° 0 mm 3 mps 683 mmHg 81%
    04:00 +1°C° 0 mm 3 mps 682 mmHg 79%
    05:00 +1°C° 0 mm 3 mps 682 mmHg 79%
    06:00 +1°C° 0 mm 3 mps 682 mmHg 80%
    07:00 +1°C° 0 mm 3 mps 682 mmHg 80%
    08:00 +1°C° 0 mm 4 mps 682 mmHg 77%
    09:00 +3°C° 0 mm 4 mps 682 mmHg 74%
    10:00 +5°C° 0 mm 5 mps 682 mmHg 71%
    11:00 +6°C° 0 mm 5 mps 682 mmHg 66%
    12:00 +7°C° 0 mm 5 mps 682 mmHg 61%
    13:00 +8°C° 0 mm 5 mps 682 mmHg 56%
    14:00 +8°C° 0 mm 5 mps 681 mmHg 55%
    15:00 +8°C° 0 mm 5 mps 681 mmHg 55%
    16:00 +8°C° 0 mm 5 mps 680 mmHg 54%
    17:00 +7°C° 0 mm 4 mps 680 mmHg 59%
    18:00 +7°C° 0 mm 3 mps 680 mmHg 64%
    19:00 +5°C° 0 mm 2 mps 680 mmHg 70%
    20:00 +5°C° 0 mm 2 mps 680 mmHg 76%
    21:00 +4°C° 0 mm 2 mps 680 mmHg 83%
    22:00 +4°C° 0 mm 2 mps 680 mmHg 90%
    23:00 +5°C° 0 mm 1 mps 680 mmHg 92%
    Show more